Location: Podia
(1.5569°N, 32.3469°E)
Time: 13:19:04
(UTC+00:00)

A-11 Canister half - All Passes

Search period start: 26 September 2020 00:00
Search period end: 06 October 2020 00:00
Orbit: 1514 x 1686 km, 47.2° (Epoch: 25 September)

Date Brightness Start Highest point End Pass type
(mag) Time Alt. Az. Time Alt. Az. Time Alt. Az.
26 Sep - 00:51:43 10° WSW 01:00:53 43° NW 01:09:46 10° NNE visible
26 Sep - 09:34:25 10° N 09:40:23 18° NE 09:46:25 10° E daylight
26 Sep - 11:35:56 10° NW 11:45:21 86° SW 11:55:09 10° SE daylight
26 Sep - 13:45:01 10° W 13:50:31 17° SW 13:56:11 10° S daylight
26 Sep - 22:24:05 10° SSW 22:33:09 38° SE 22:41:53 10° ENE night (unlit)
27 Sep - 00:28:34 10° WSW 00:37:57 47° NW 00:47:01 10° NNE visible
27 Sep - 09:12:00 10° N 09:17:24 17° NE 09:22:51 10° E daylight
27 Sep - 11:13:02 10° NW 11:22:26 87° NE 11:32:12 10° SE daylight
27 Sep - 13:21:28 10° W 13:27:31 18° SW 13:33:44 10° S daylight
27 Sep - 22:01:20 10° SSW 22:10:11 35° SE 22:18:44 10° ENE night (unlit)
28 Sep - 00:05:28 10° SW 00:15:01 52° NW 00:24:15 10° NNE visible
28 Sep - 08:49:42 10° NNE 08:54:25 15° NE 08:59:09 10° ENE daylight
28 Sep - 10:50:10 10° NW 10:59:31 81° NE 11:09:14 10° SE daylight
28 Sep - 12:58:02 10° W 13:04:32 20° SW 13:11:13 10° S daylight
28 Sep - 21:38:37 10° S 21:47:13 32° SE 21:55:34 10° ENE night (unlit)
28 Sep - 23:42:23 10° SW 23:52:05 57° NW 00:01:27 10° NNE visible
29 Sep - 08:27:33 10° NNE 08:31:25 13° NE 08:35:18 10° ENE daylight
29 Sep - 10:27:18 10° NW 10:36:37 75° NE 10:46:15 10° SE daylight
29 Sep - 12:34:41 10° W 12:41:33 22° SW 12:48:39 10° S daylight
29 Sep - 21:15:54 10° S 21:24:15 29° SE 21:32:21 10° ENE night (unlit)
29 Sep - 23:19:20 10° SW 23:29:10 62° NW 23:38:39 10° NNE visible
30 Sep - 08:05:41 10° NNE 08:08:24 11° NE 08:11:09 10° ENE daylight
30 Sep - 10:04:28 10° NNW 10:13:43 69° NE 10:23:16 10° SE daylight
30 Sep - 12:11:22 10° W 12:18:35 24° SW 12:26:03 10° S daylight
30 Sep - 20:53:13 10° S 21:01:16 27° SE 21:09:06 10° ENE night (unlit)
30 Sep - 22:56:18 10° SW 23:06:14 67° NW 23:15:50 10° NNE night (unlit)
01 Oct - 01:08:45 10° WNW 01:11:40 12° NW 01:14:34 10° NNW visible
01 Oct - 09:41:39 10° NNW 09:50:49 63° NE 10:00:15 10° SE daylight
01 Oct - 11:48:07 10° WNW 11:55:37 27° SW 12:03:25 10° S daylight
01 Oct - 20:30:35 10° S 20:38:17 24° SE 20:45:47 10° E night (unlit)
01 Oct - 22:33:16 10° SW 22:43:18 73° NW 22:52:59 10° NNE night (unlit)
02 Oct - 00:44:32 10° WNW 00:48:38 13° NW 00:52:42 10° NNW visible
02 Oct - 09:18:50 10° NNW 09:27:54 58° NE 09:37:13 10° SE daylight
02 Oct - 11:24:53 10° WNW 11:32:41 29° SW 11:40:44 10° S daylight
02 Oct - 20:07:59 10° S 20:15:18 22° SE 20:22:26 10° E night (unlit)
02 Oct - 22:10:16 10° SW 22:20:22 79° NW 22:30:07 10° NE night (unlit)
03 Oct - 00:20:38 10° WNW 00:25:37 15° NW 00:30:33 10° NNW visible
03 Oct - 08:56:04 10° NNW 09:05:00 53° NE 09:14:10 10° SE daylight
03 Oct - 11:01:43 10° WNW 11:09:44 32° SW 11:18:02 10° S daylight
03 Oct - 19:45:26 10° S 19:52:17 20° SE 19:59:02 10° E visible
03 Oct - 21:47:17 10° SW 21:57:26 85° NW 22:07:14 10° NE night (unlit)
03 Oct - 23:56:55 10° W 00:02:37 17° NW 00:08:14 10° N visible
04 Oct - 08:33:17 10° NNW 08:42:05 48° NE 08:51:07 10° ESE daylight
04 Oct - 10:38:34 10° WNW 10:46:48 35° SW 10:55:19 10° SSE daylight
04 Oct - 19:22:56 10° S 19:29:17 18° SE 19:35:32 10° E visible
04 Oct - 21:24:19 10° SW 21:34:30 89° SE 21:44:20 10° NE night (unlit)
04 Oct - 23:33:18 10° W 23:39:37 19° NW 23:45:50 10° N night (unlit)
05 Oct - 08:10:32 10° NNW 08:19:11 44° NE 08:28:01 10° ESE daylight
05 Oct - 10:15:28 10° WNW 10:23:52 38° SW 10:32:35 10° SSE daylight
05 Oct - 19:00:31 10° S 19:06:17 16° SE 19:11:57 10° E visible
05 Oct - 21:01:23 10° SW 21:11:34 83° SE 21:21:25 10° NE night (unlit)
05 Oct - 23:09:47 10° W 23:16:37 21° NW 23:23:21 10° N night (unlit)
